Weather History for KHSE - October, 2011

Change the Weather History Date:

Monday, October 10, 2011

  Actual Average Record
Temperature  
Mean Temperature 73 °F 68 °F  
Max Temperature 77 °F 74 °F 86 °F (1990)
Min Temperature 68 °F 62 °F 44 °F (1978)
Degree Days  
Heating Degree Days 0 1  
Month to date heating degree days 12 10  
Since 1 July heating degree days 12 13  
Cooling Degree Days 8 4  
Month to date cooling degree days 26 49  
Year to date cooling degree days 2292 1641  
Growing Degree Days 22 (Base 50)    
Moisture  
Dew Point 65 °F    
Average Humidity 78    
Maximum Humidity 87    
Minimum Humidity 69    
Precipitation  
Precipitation 0.00 in 0.18 in 3.02 in (2005)
Month to date precipitation 0.00 1.81  
Year to date precipitation 47.15 45.25  
Snow  
Snow 0.00 in - - ()
Month to date snowfall 0.0  
Since 1 July snowfall 0.0  
Snow Depth 0.00 in    
Sea Level Pressure  
Sea Level Pressure 30.16 in    
Wind  
Wind Speed 8 mph (ENE)    
Max Wind Speed 10 mph    
Max Gust Speed 18 mph    
Visibility 10 miles    
Events      
T = Trace of Precipitation, MM = Missing Value Source: NWS Daily Summary

Daily Weather History Graph

Daily Weather History Graph

Search for Another Location

Airport or City:

Trip Planner

Search our weather history database for the weather conditions in past years. The results will help you decide how hot, cold, wet, or windy it might be!

Date:

Astronomy

Oct. 10, 2011 Rise Set
Actual Time 7:04 AM EDT 6:34 PM EDT
Civil Twilight 6:38 AM EDT 6:59 PM EDT
Nautical Twilight 6:09 AM EDT 7:29 PM EDT
Astronomical Twilight 5:39 AM EDT 7:58 PM EDT
Moon 5:36 PM EDT (10/10) 5:44 AM EDT (10/10)
Length of Visible Light 12h 20m
Length of Day
11h 30m
Waxing Gibbous, 98% of the Moon is Illuminated
Oct 10
Waxing Gibbous
Oct 11
Full
Oct 19
Last Quarter
Oct 26
New
Nov 2
First Quarter

Hourly Weather History & Observations

Time (EDT) Temp. Dew Point Humidity Pressure Visibility Wind Dir Wind Speed Gust Speed Precip Events Conditions
12:51 AM 68.0 °F 62.1 °F 81% 30.27 in 10.0 mi NE 6.9 mph - N/A   Clear
1:51 AM 68.0 °F 62.1 °F 81% 30.26 in 10.0 mi NE 6.9 mph - N/A   Clear
2:51 AM 68.0 °F 63.0 °F 84% 30.23 in 10.0 mi NE 5.8 mph - N/A   Clear
3:51 AM 68.0 °F 63.0 °F 84% 30.21 in 10.0 mi NE 8.1 mph - N/A   Clear
4:51 AM 68.0 °F 64.0 °F 87% 30.21 in 10.0 mi NE 8.1 mph - N/A   Clear
5:51 AM 68.0 °F 64.0 °F 87% 30.21 in 10.0 mi NE 6.9 mph - N/A   Clear
6:51 AM 68.0 °F 64.0 °F 87% 30.21 in 10.0 mi ENE 6.9 mph - N/A   Clear
7:51 AM 69.1 °F 64.0 °F 84% 30.22 in 10.0 mi NE 9.2 mph - N/A   Clear
8:51 AM 71.1 °F 64.9 °F 81% 30.22 in 10.0 mi ENE 8.1 mph 17.3 mph N/A   Clear
9:51 AM 73.9 °F 66.0 °F 76% 30.22 in 10.0 mi ENE 9.2 mph - N/A   Partly Cloudy
10:51 AM 73.9 °F 66.0 °F 76% 30.22 in 10.0 mi ENE 8.1 mph - N/A   Partly Cloudy
11:51 AM 75.9 °F 66.0 °F 71% 30.21 in 10.0 mi NE 6.9 mph - N/A   Clear
12:51 PM 75.0 °F 66.0 °F 73% 30.18 in 10.0 mi ENE 5.8 mph - N/A   Clear
1:09 PM 75.2 °F 66.2 °F 73% 30.17 in 10.0 mi ENE 8.1 mph - N/A   Partly Cloudy
1:51 PM 75.0 °F 66.0 °F 73% 30.15 in 10.0 mi ENE 8.1 mph - N/A   Clear
2:51 PM 77.0 °F 66.9 °F 71% 30.13 in 10.0 mi ENE 8.1 mph - N/A   Clear
3:51 PM 73.9 °F 64.9 °F 73% 30.12 in 10.0 mi NE 8.1 mph - N/A   Clear
4:51 PM 73.0 °F 64.0 °F 73% 30.12 in 10.0 mi ENE 8.1 mph - N/A   Clear
5:51 PM 72.0 °F 64.0 °F 76% 30.11 in 10.0 mi ENE 9.2 mph - N/A   Clear
6:40 PM 71.6 °F 64.4 °F 78% 30.11 in 10.0 mi ENE 6.9 mph - N/A   Partly Cloudy
6:51 PM 71.1 °F 64.0 °F 78% 30.10 in 10.0 mi ENE 8.1 mph - N/A   Clear
7:51 PM 72.0 °F 64.9 °F 78% 30.09 in 10.0 mi ENE 6.9 mph - N/A   Clear
8:51 PM 72.0 °F 66.0 °F 81% 30.09 in 10.0 mi ENE 8.1 mph - N/A   Clear
9:51 PM 73.0 °F 66.9 °F 81% 30.09 in 10.0 mi East 9.2 mph - N/A   Clear
10:51 PM 73.0 °F 66.0 °F 79% 30.07 in 10.0 mi East 8.1 mph - N/A   Mostly Cloudy
11:51 PM 73.0 °F 66.0 °F 79% 30.06 in 10.0 mi ENE 9.2 mph - N/A   Overcast